Location: St. Louis
(38.6270°N, 90.1994°W)
Time: 00:46:15
(UTC-06:00)

Courier 1B Rocket - Pass Details

Date: 30 November 2021
Orbit: 920 x 1202 km, 28.2° (Epoch: 16 January)

Event Time Altitude Azimuth Distance (km) Brightness Sun altitude
Rises 04:26:35 0° 260° (W) 3,582 - -29.2°
Reaches altitude 10° 04:29:46 10° 245° (WSW) 2,666 - -28.6°
Exits shadow 04:34:19 22° 199° (SSW) 2,006 6.5 -27.7°
Maximum altitude 04:34:29 22° 197° (SSW) 2,007 6.5 -27.7°
Drops below altitude 10° 04:39:24 10° 150° (SSE) 2,788 7.8 -26.7°
Sets 04:42:49 0° 135° (SE) 3,793 8.9 -26.1°
